Location: *
(50.5490°S, 120.6730°E)
Time: 19:16:27
(UTC+00:00)

Daily predictions for brighter satellites

Satellite Brightness Start Highest point End
(mag) Time Altitude Azimuth Time Altitude Azimuth Time Altitude Azimuth
ATLAS 3B R/B 3.4 12:10:53 10° WNW 12:17:41 49° SSW 12:17:50 49° SSW
NOSS 3-2 (C) 4.2 12:14:05 10° WNW 12:21:35 63° WSW 12:21:35 63° WSW
Cosmos 1833 Rocket 4.5 12:24:06 10° WNW 12:26:52 27° WNW 12:26:52 27° WNW
USA 234 4.3 12:41:06 39° SW 12:41:06 39° SW 12:45:23 10° WSW
CZ-4C R/B 4.3 12:39:57 10° SW 12:42:28 23° WSW 12:42:28 23° WSW
CENTAUR R/B 4.3 12:51:15 10° NW 12:54:50 29° WNW 12:54:50 29° WNW
Lacrosse 5 4.3 19:36:12 20° ESE 19:36:12 20° ESE 19:37:55 10° ESE
ATLAS 2AS CENTAUR R/B 4.0 19:43:49 27° SSE 19:43:49 27° SSE 19:46:35 10° SE
Cosmos 2278 Rocket 3.6 19:51:44 35° ESE 19:51:44 35° ESE 19:55:22 10° SE
SL-16 R/B 4.5 19:55:57 10° S 19:57:30 18° S 19:57:30 18° S
ATLAS 5 CENTAUR R/B 3.3 20:07:11 43° SSE 20:07:11 43° SSE 20:11:08 10° SE
CZ-4 R/B 4.4 20:11:01 10° E 20:13:13 14° ESE 20:15:25 10° SSE
Cosmos 2279 Rocket 4.4 20:17:27 54° SSE 20:17:27 54° SSE 20:22:12 10° S
NOSS 3-4 (A) 3.8 20:20:24 80° SW 20:20:30 80° SW 20:28:08 10° SE
NOSS 3-4 (C) 3.8 20:20:30 80° WSW 20:20:37 80° SW 20:28:16 10° SE
Cosmos 1818 4.1 20:33:53 51° SSE 20:34:12 52° SE 20:39:27 10° ENE
Cosmos 2082 Rocket 3.0 20:36:23 42° NNE 20:36:23 42° NNE 20:40:04 10° NNE
USA 267 3.2 20:29:58 10° ENE 20:36:34 80° SSE 20:37:36 65° SW
Cosmos 1844 Rocket 4.2 20:39:11 24° S 20:39:11 24° S 20:41:54 10° SSE
Cosmos 2251 Rocket 3.7 20:39:14 68° SE 20:39:14 68° SE 20:44:01 10° SSE
BREEZE-M DEB (TANK) 3.9 20:38:27 76° NW 20:38:46 80° N 20:42:21 10° E
RESURS DK-1 4.4 20:45:29 21° SSE 20:45:29 21° SSE 20:46:58 10° SSE
Cosmos 2266 Rocket 4.0 20:38:19 10° S 20:44:44 88° E 20:51:09 10° N
Tiangong 2 4.4 20:46:40 10° NE 20:46:40 10° NE 20:46:41 10° NE
Cosmos 1726 3.5 20:50:23 38° E 20:50:23 38° E 20:53:35 10° NE
Genesis I 4.4 20:56:13 39° ESE 20:56:13 39° ESE 20:59:18 10° ENE
In-Cosmos 22 4.1 20:54:21 10° N 20:59:40 82° E 21:05:07 10° SSE
Ariane Rocket 4.2 20:58:42 10° NE 21:03:27 40° ESE 21:08:16 10° S
Meteor 1-24 Rocket 3.8 21:00:33 10° N 21:06:12 78° E 21:12:08 10° SSE
Cosmos 2297 3.8 21:03:27 18° NNW 21:07:42 73° ENE 21:13:24 10° SSE
Cosmos 1953 Rocket 3.4 21:10:28 80° NNW 21:10:43 88° W 21:15:10 10° S
Cosmos 1758 Rocket 3.9 21:11:59 54° SSW 21:11:59 54° SSW 21:15:39 10° S
Cosmos 371 Rocket 4.1 21:10:37 22° S 21:13:34 50° ESE 21:18:17 10° NE
Cosmos 1241 Rocket 4.4 21:11:27 43° WNW 21:13:45 73° SW 21:20:17 10° SE
SMAP 3.1 21:09:08 10° NNE 21:13:51 84° ESE 21:16:41 25° SSW
Meteor 2-1 Rocket 4.3 21:08:58 10° SSW 21:14:45 84° ESE 21:20:35 10° NNE
Lacrosse 5 1.9 21:15:24 55° SW 21:16:32 78° SSE 21:21:42 10° ENE
Cosmos 1833 Rocket 3.9 21:19:44 25° NW 21:19:44 25° NW 21:22:35 10° NNW
YAOGAN 3 4.5 21:14:57 10° NNE 21:19:23 85° W 21:20:54 41° SSW
Cosmos 1674 2.8 21:16:13 10° N 21:19:59 74° E 21:23:51 10° SSE
Meteor 2-11 Rocket 4.4 21:14:15 10° NNW 21:20:21 61° WSW 21:26:29 10° S
Meteor 1-28 Rocket 3.8 21:17:27 10° S 21:20:16 46° S 21:20:16 46° S
Cosmos 2263 Rocket 4.4 21:24:09 11° SSW 21:24:13 11° SSW 21:25:50 10° S
Cosmos 1908 4.0 21:25:40 40° NNW 21:25:40 40° NNW 21:28:16 10° N
ALOS 2.6 21:19:46 10° NNE 21:24:27 68° ESE 21:29:12 10° S
COSMOS 2455 4.1 21:20:49 16° SSW 21:25:02 36° SE 21:30:35 10° ENE
ATLAS 2AS CENTAUR R/B 3.5 21:31:14 24° SW 21:32:39 26° SSW 21:37:47 10° SE
COSMOS 2487 2.6 21:32:59 45° S 21:33:57 72° ESE 21:37:30 10° NNE
Cosmos 2278 Rocket 2.7 21:33:36 37° WSW 21:34:08 37° SW 21:39:28 10° SSE
USA 161 2.9 21:39:12 27° N 21:39:12 27° N 21:40:40 10° N
CSL-04 Rocket 3.7 21:33:34 10° NNE 21:39:12 82° WNW 21:44:52 10° SSW
Meteor 2-5 Rocket 4.1 21:35:30 19° NW 21:39:23 45° WSW 21:45:06 10° S
USA 129 4.0 21:37:56 10° NE 21:39:29 26° E 21:39:29 26° E
Cosmos 2369 Rocket 4.0 21:35:18 10° NNE 21:40:20 33° ENE 21:45:26 10° SE
Cosmos 1238 Rocket 3.0 21:35:55 10° NNW 21:40:34 57° W 21:44:27 10° S
Cosmos-2242 3.8 21:41:41 33° NW 21:41:41 33° NW 21:44:42 10° NNW
USA 215 3.3 21:35:44 10° ESE 21:42:23 86° NNE 21:47:53 16° WNW
CSL-04 Debris 4.1 21:37:37 10° NNE 21:43:06 81° WNW 21:48:42 10° SSW
SL-16 R/B 4.5 21:41:40 10° SSW 21:42:36 11° SSW 21:42:36 11° SSW
AQUARIUS 4.3 21:42:23 10° N 21:46:49 52° W 21:49:39 21° SSW
CZ-4 R/B 1.3 21:43:29 10° NNE 21:47:41 83° WNW 21:51:37 12° SSW
NOAA 12 4.4 21:43:20 10° NNE 21:48:34 68° ESE 21:53:53 10° S
ATLAS 5 CENTAUR R/B 3.4 21:48:44 25° SW 21:50:45 30° SSW 21:55:50 10° SE
Cosmos 2227 Rocket 4.5 21:48:56 10° S 21:51:51 14° SSE 21:54:47 10° ESE
Cosmos 1553 Rocket 4.4 21:45:53 10° N 21:52:09 67° E 21:58:23 10° SSE
YAOGAN 1 2.6 21:49:33 10° NNE 21:53:57 84° ESE 21:58:24 10° SSW
Cosmos 332 Rocket 3.7 21:53:01 17° SSW 21:56:47 73° WNW 22:01:40 10° NNE
Timation 2 Rocket 3.8 21:52:08 15° SSW 21:57:15 81° WNW 22:03:15 10° NNE
METEOR-M 4.5 22:00:52 10° N 22:06:00 43° W 22:11:11 10° SSW
SL-08 R/B 4.4 22:00:53 10° SSW 22:07:08 77° W 22:13:15 10° N
ARGOS Delta rocket 4.4 22:02:26 10° S 22:07:39 43° WSW 22:12:40 10° NW
USA 229 DEB 4.1 22:01:47 14° SW 22:07:53 64° SE 22:14:40 10° ENE
USA 229 4.1 22:01:53 14° SW 22:08:00 63° SE 22:14:46 10° ENE
Cosmos 1340 4.5 22:10:31 16° WNW 22:10:31 16° WNW 22:11:50 10° NW
Cosmos 1300 2.7 22:05:13 10° SSW 22:09:06 62° W 22:12:55 10° N
Envisat 4.5 22:04:40 10° NE 22:09:22 37° ESE 22:14:06 10° S
Iridium 18 4.0 22:07:25 10° N 22:09:31 55° E 22:11:53 10° SSE
NOSS 3-1 (A) 4.5 22:04:08 13° SW 22:09:51 40° SSE 22:15:35 10° E
Cosmos 1943 Rocket 3.5 22:06:57 10° N 22:12:13 44° ENE 22:17:30 10° SE
Meteor 1-21 Rocket 4.3 22:06:30 10° N 22:12:24 88° W 22:18:27 10° SSE
Shenzhou-11 Module 4.4 22:12:23 12° NW 22:13:34 14° NNW 22:15:12 10° NNE
KORONAS-FOTON 4.3 22:11:47 10° NW 22:15:23 36° WSW 22:19:04 10° S
SKYMED 2 3.7 22:11:51 10° SSE 22:16:19 81° ENE 22:20:42 10° NNW
Cosmos 1626 2.8 22:13:15 10° N 22:16:58 59° E 22:20:45 10° SSE
Cosmos 2082 Rocket 3.9 22:18:18 13° WNW 22:18:18 13° WNW 22:20:15 10° NW
Cosmos 1818 4.2 22:14:34 20° WSW 22:17:39 37° WNW 22:22:32 10° N
IRS-1A Rocket 4.2 22:13:10 10° NNE 22:18:43 79° WNW 22:24:23 10° SSW
Cosmos 1867 4.4 22:14:28 10° NNW 22:19:43 53° ENE 22:24:59 10° SE
USA 267 3.8 22:13:44 10° NNE 22:19:55 43° NW 22:24:57 16° WSW
RESURS DK-1 4.2 22:21:24 14° SW 22:21:37 15° SW 22:24:00 10° S
Tiangong 2 3.4 22:19:19 10° NW 22:21:49 20° N 22:24:20 10° NE
Meteor 2-13 Rocket 4.4 22:16:28 10° SSW 22:22:37 72° W 22:28:40 10° N
Cosmos 1726 3.5 22:24:59 19° W 22:25:01 19° W 22:27:42 10° NW
ATLAS CENTAUR R/B 3.8 22:24:05 10° N 22:28:09 30° ENE 22:32:01 10° ESE
Iridium 4 Rocket 3.9 22:22:45 10° NNW 22:28:32 59° W 22:34:30 10° S
SPOT 3 Rocket 3.8 22:25:32 10° NNE 22:30:43 74° ESE 22:35:58 10° SSW
Cosmos 2221 2.7 22:27:56 10° SSW 22:32:20 54° W 22:36:39 10° N
H-2A R/B 2.8 22:28:58 10° N 22:32:55 64° W 22:36:55 10° SSW
Genesis I 4.3 22:31:11 17° WSW 22:33:10 27° WNW 22:36:22 10° N
deb Kosmos-1763 4.3 22:30:04 11° SSW 22:33:31 52° WNW 22:37:08 10° N
Cosmos 1842 Rocket 4.4 22:29:57 10° SSW 22:33:50 30° W 22:37:41 10° NNW
FENGYUN 3A 4.2 22:29:34 10° NNW 22:34:32 36° W 22:39:33 10° SSW
Ariane Rocket 3.7 22:37:50 10° NNW 22:42:28 34° W 22:47:11 10° SSW
Resurs 01 Rocket 3.8 22:39:21 10° ENE 22:42:56 24° ESE 22:46:32 10° S
Cosmos 407 Rocket 3.6 22:39:09 10° NW 22:44:19 55° WSW 22:49:29 10° SSE
Cosmos 1140 Rocket 3.5 22:40:20 10° NNW 22:45:38 88° WSW 22:50:58 10° SSE
SJ-6B 3.9 22:42:12 10° NE 22:45:50 45° ESE 22:49:33 10° S
Cosmos 1745 Rocket 4.3 22:41:55 10° SSW 22:48:05 51° W 22:54:13 10° NNW
Cosmos 405 Rocket 3.1 22:44:17 10° S 22:48:13 69° ESE 22:52:01 10° NNE
Cosmos 44 4.3 22:43:44 10° NNW 22:48:25 49° ENE 22:52:51 10° SE
Lacrosse 5 rocket 3.8 22:45:01 10° N 22:48:36 26° NE 22:52:03 10° ESE
Cosmos 1954 Rocket 4.0 22:47:13 10° NNW 22:52:34 81° WSW 22:57:57 10° SSE
Lacrosse 4 Rocket 1.3 22:49:08 10° NW 22:53:14 78° SW 22:57:21 10° SSE
Cosmos 371 Rocket 4.4 22:49:44 10° SW 22:53:42 25° W 22:57:38 10° NNW
Cosmos 1076 Rocket 3.5 22:51:52 10° NNW 22:56:15 69° WSW 23:00:39 10° S
Lacrosse 5 3.0 22:54:41 10° WSW 22:59:10 31° NW 23:03:38 10° N
Okean 3 Rocket 3.6 22:56:25 10° NNW 23:00:56 74° W 23:05:29 10° S
Cosmos 1570 Rocket 4.1 22:55:42 10° SSW 23:01:11 88° WNW 23:06:35 10° NNE
ALOS 3.8 22:59:11 10° NW 23:02:23 18° W 23:05:36 10° SW
USA 186 3.1 23:00:54 10° NE 23:04:17 46° ESE 23:07:41 10° S
COSMO-SKYMED 1 3.1 23:00:12 10° S 23:04:17 37° WSW 23:08:20 10° NW
Cosmos 1703 3.3 23:00:54 10° N 23:04:55 88° W 23:08:59 10° S
FengYun 1-2 T 4.5 23:00:51 10° N 23:06:27 55° W 23:12:04 10° SSW
SL-14 R/B 4.3 23:03:44 10° NW 23:06:57 24° WSW 23:10:12 10° SSW
Cosmos 304 Rocket 4.2 23:02:21 10° SW 23:07:01 46° WNW 23:11:37 10° N
NOSS 3-1 (C) 3.6 23:01:02 10° SW 23:07:51 83° SE 23:13:43 10° NE
Cosmos 2208 Rocket 4.1 23:03:16 10° SSW 23:08:34 86° WNW 23:13:48 10° NNE
FREGAT/IRIS 2.9 23:06:27 10° N 23:09:23 49° W 23:12:21 10° SSW
Cosmos 2263 Rocket 4.5 23:10:38 10° S 23:11:08 10° SSE 23:11:39 10° SSE
COSMOS 2455 3.0 23:05:21 10° SW 23:11:22 64° WNW 23:17:19 10° NNE
ATLAS CENTAUR R/B 4.3 22:59:07 10° SW 23:13:42 44° WNW 23:19:09 10° N
